Regional Weather Roundup
Issued by NWS

Home | Current Version | Previous Version | Text Only | Print | Product List | Glossary Off
Versions: 1 2 3 4 5 6 7 8 9 10 11 12 13 14 15 16 17 18 19 20 21 22 23 24 25 26 27 28 29 30 31 32 33 34 35 36 37 38 39 40 41 42 43 44 45 46 47 48 49 50

000
ASUS45 KABQ 070301
RWRNM
NEW MEXICO REGIONAL WEATHER ROUNDUP
NATIONAL WEATHER SERVICE ALBUQUERQUE NM
900 PM MDT MON JUL 06 2015

NOTE: "FAIR" MEANS FEW OR NO CLOUDS BELOW 12,000 FEET AGL WITH NO
       SIGNIFICANT WEATHER OR OBSTRUCTIONS TO VISION.

      THIS PRODUCT IS RELEASED AS TWO VERSIONS.  ONE VERSION NEAR
      THE TOP OF THE HOUR CONTAINING PRELIMINARY DATA FROM ALBUQUERQUE
      AND OTHER STATIONS.  A FINAL VERSION WITH ADDITIONAL DATA IS
      ISSUED ABOUT 10 MINUTES AFTER THE HOUR.

NMZ501-503-504-510>518-070400-
NORTHWEST PLATEAU/NORTHCENTRAL MOUNTAINS

CITY           SKY/WX    TMP DP  RH WIND       PRES   REMARKS
FARMINGTON     PTCLDY    74  52  46 CALM      30.11R
SANTA FE       CLOUDY    65  55  70 S8        30.18S
TAOS           CLOUDY    63  45  51 N23G32    30.27R

$$
NMZ402-403-502-505>509-070400-
WESTCENTRAL MOUNTAINS/SOUTHWEST MOUNTAINS

CITY           SKY/WX    TMP DP  RH WIND       PRES   REMARKS
GALLUP         LGT RAIN  65  54  67 W14       30.22R
SILVER CITY      N/A     77  50  38 W14       30.13R

$$
NMZ407-409-411-412-070400-
SOUTHERN DESERTS

CITY           SKY/WX    TMP DP  RH WIND       PRES   REMARKS
DEMING         PTCLDY    80  59  48 NW8       30.01R
ALAMOGORDO     MOCLDY    86  48  26 W3        29.95S
T OR C         PTCLDY    83  51  33 W7        30.03R

$$
NMZ519>523-070400-
CENTRAL VALLEYS/CENTRAL HIGHLANDS

CITY           SKY/WX    TMP DP  RH WIND       PRES   REMARKS
ALBUQUERQUE    MOCLDY    74  56  53 E15       30.10R
DOUBLE EAGLE   MOCLDY    72  55  56 N7        30.13F
MORIARTY ARPT  LGT RAIN  64  58  81 E6        30.22R
CLINES CORNERS CLOUDY    59  57  93 E14       30.25S
BELEN          FAIR      74  56  53 NW9       30.08R
SOCORRO        NOT AVBL

$$
NMZ524>526-539-540-070400-
SOUTHCENTRAL MOUNTAINS

CITY           SKY/WX    TMP DP  RH WIND       PRES   REMARKS
RUIDOSO        NOT AVBL

$$
NMZ527>531-070400-
NORTHEAST HIGHLANDS/NORTHEAST PLAINS

CITY           SKY/WX    TMP DP  RH WIND       PRES   REMARKS
LAS VEGAS      CLOUDY    58  56  93 NE15      30.29R
RATON          CLOUDY    62  55  77 NE14      30.26R
CLAYTON        LGT RAIN  63  60  90 N15       30.20R

$$
NMZ532>537-070400-
EASTCENTRAL PLAINS

CITY           SKY/WX    TMP DP  RH WIND       PRES   REMARKS
TUCUMCARI      LGT RAIN  66  63  90 NE12      30.12R
CANNON AFB     RAIN      66  64  94 NE18G29   30.11S
CLOVIS AIRPORT CLOUDY    64  63  94 N18G29      N/A  THUNDER

$$
NMZ028-029-538-070400-
SOUTHEAST PLAINS

CITY           SKY/WX    TMP DP  RH WIND       PRES   REMARKS
ROSWELL        MOCLDY    74  65  73 NE26G36   30.00R
ARTESIA        PTCLDY    77  64  65 N24G30    30.01R
CARLSBAD       TSTM      72  67  84 NW10      29.98R
HOBBS          MOCLDY    81  59  47 SE8       29.96R


$$



USA.gov is the U.S. government's official web portal to all federal, state and local government web resources and services.